Location: Domont
(49.0278°N, 2.3264°E)
Time: 10:14:49
(UTC+00:00)

H-2A R/B - Pass Details

Date: 02 June 2022
Orbit: 576 x 653 km, 98.5° (Epoch: 30 June)

Event Time Altitude Azimuth Distance (km) Brightness Sun altitude
Rises 20:52:49 0° 7° (N) 2,804 6.1 -8.7°
Reaches altitude 10° 20:55:05 10° 358° (N) 1,904 5.4 -8.9°
Maximum altitude 20:58:50 35° 293° (WNW) 957 3.7 -9.3°
Drops below altitude 10° 21:02:35 10° 228° (SW) 1,913 4.5 -9.7°
Sets 21:04:53 0° 219° (SW) 2,820 5.3 -9.9°
